Date String (YYYY-MM-DD hh:mm:ss) UTC,Instrument flags,absolute air pressure of the measurement (hPa),sample flow rate (lpm),inlet stack bypass flow (lpm),air temperature of the measurement (°C),ambient temperature measured by the external sensor (°C),aerosol sample conditioner tube jacket temperature (°C),OPC LED temperature (°C),internal box temperature (°C),relative humidity of the measurement (%),span deviation,mass concentration of particles derived from Lorenz-Mie calculation of OPC scattering (μg/m³),mass concentration of particles derived from Lorenz-Mie calculation of OPC scattering (μg/m³),mass concentration of particles derived from Lorenz-Mie calculation of OPC scattering (μg/m³)
DateTimeUTC,F1_M11,P_M11,Q1_M11,Q2_M11,T1_M11,T2_M11,T3_M11,T4_M11,T5_M11,U1_M11,ZSPAN_M11,X0_M11,X2_M11,X1_M11
2024-05-13 04:00:00,SystemResetWarning,0827.1,5.00,000.00,025.5,025.1,000.0,033.6,027.3,026.0,0000.0,0007.57,0003.11,0002.39
2024-05-13 04:01:00,SystemResetWarning,0827.2,5.00,000.00,025.6,025.1,000.0,033.6,027.4,025.8,0000.0,0007.47,0003.11,0002.39
2024-05-13 04:02:00,SystemResetWarning,0827.1,5.00,000.00,025.6,025.1,000.0,033.6,027.4,026.0,0000.0,0007.42,0003.10,0002.39
2024-05-13 04:03:00,SystemResetWarning,0827.1,5.00,000.00,025.6,025.1,000.0,033.7,027.4,025.9,0000.0,0007.00,0003.08,0002.39
2024-05-13 04:04:00,SystemResetWarning,0827.1,4.99,000.00,025.6,025.2,000.0,033.7,027.4,025.7,0000.0,0005.67,0003.04,0002.39
2024-05-13 04:05:00,SystemResetWarning,0827.1,4.99,000.00,025.6,025.2,000.0,033.7,027.4,025.5,0000.0,0005.75,0003.07,0002.39
2024-05-13 04:06:00,SystemResetWarning,0827.1,5.00,000.00,025.7,025.2,000.0,033.7,027.5,025.4,0000.0,0005.62,0003.02,0002.38
2024-05-13 04:07:00,SystemResetWarning,0827.1,5.00,000.00,025.7,025.2,000.0,033.8,027.5,025.1,0000.0,0005.67,0003.06,0002.38
2024-05-13 04:08:00,SystemResetWarning,0827.1,5.00,000.00,025.7,025.2,000.0,033.8,027.5,025.0,0000.0,0005.69,0003.06,0002.37
2024-05-13 04:09:00,SystemResetWarning,0827.2,5.02,000.00,025.7,025.2,000.0,033.8,027.5,025.0,0000.0,0005.75,0003.09,0002.37
2024-05-13 04:10:00,SystemResetWarning,0827.1,4.99,000.00,025.7,025.2,000.0,033.8,027.5,025.2,0000.0,0004.64,0003.08,0002.36
2024-05-13 04:11:00,SystemResetWarning,0827.2,4.99,000.00,025.8,025.3,000.0,033.8,027.5,025.0,0000.0,0004.54,0003.05,0002.36
2024-05-13 04:12:00,SystemResetWarning,0827.1,5.00,000.00,025.8,025.3,000.0,033.9,027.5,024.8,0000.0,0004.53,0003.04,0002.35
2024-05-13 04:13:00,SystemResetWarning,0827.1,5.01,000.00,025.8,025.3,000.0,033.9,027.6,024.4,0000.0,0004.56,0003.04,0002.33
2024-05-13 04:14:00,SystemResetWarning,0827.2,5.00,000.00,025.8,025.3,000.0,033.9,027.6,024.0,0000.0,0004.32,0002.97,0002.32
2024-05-13 04:15:00,SystemResetWarning,0827.2,4.99,000.00,025.8,025.3,000.0,033.9,027.6,024.4,0000.0,0004.34,0002.97,0002.31
2024-05-13 04:16:00,SystemResetWarning,0827.2,5.00,000.00,025.8,025.3,000.0,033.9,027.6,024.6,0000.0,0004.20,0002.92,0002.29
2024-05-13 04:17:00,SystemResetWarning,0827.2,5.01,000.00,025.9,025.3,000.0,033.9,027.6,024.6,0000.0,0004.20,0002.90,0002.27
2024-05-13 04:18:00,SystemResetWarning,0827.2,4.99,000.00,025.9,025.3,000.0,034.0,027.6,024.5,0000.0,0004.30,0002.87,0002.25
2024-05-13 04:19:00,SystemResetWarning,0827.1,5.00,000.00,025.9,025.3,000.0,034.0,027.6,024.5,0000.0,0004.24,0002.84,0002.24
2024-05-13 04:20:00,SystemResetWarning,0827.1,4.99,000.00,025.7,023.9,000.0,034.0,026.8,024.3,0000.0,0004.14,0002.80,0002.23
2024-05-13 04:21:00,SystemResetWarning,0827.1,5.01,000.00,025.2,022.0,000.0,034.0,025.8,025.3,0000.0,0004.09,0002.78,0002.22
2024-05-13 04:22:00,SystemResetWarning,0827.1,5.01,000.00,024.9,021.7,000.0,034.0,025.5,025.4,0000.0,0004.13,0002.78,0002.21
2024-05-13 04:23:00,SystemResetWarning,0827.1,5.00,000.00,024.8,022.0,000.0,033.8,025.6,025.6,0000.0,0004.17,0002.78,0002.22
2024-05-13 04:24:00,SystemResetWarning,0827.1,5.00,000.00,024.8,022.4,000.0,033.6,025.9,025.8,0000.0,0004.14,0002.74,0002.19
2024-05-13 04:25:00,SystemResetWarning,0827.1,5.00,000.00,024.8,022.8,000.0,033.5,026.1,025.4,0000.0,0004.08,0002.73,0002.19
2024-05-13 04:26:00,SystemResetWarning,0827.1,5.00,000.00,024.8,023.1,000.0,033.4,026.3,025.4,0000.0,0004.15,0002.74,0002.20
2024-05-13 04:27:00,SystemResetWarning,0827.1,5.00,000.00,024.8,023.4,000.0,033.4,026.4,025.3,0000.0,0004.29,0002.74,0002.20
2024-05-13 04:28:00,SystemResetWarning,0827.0,5.00,000.00,024.8,023.6,000.0,033.4,026.5,025.2,0000.0,0004.41,0002.78,0002.22
2024-05-13 04:29:00,SystemResetWarning,0827.0,4.98,000.00,024.9,023.8,000.0,033.3,026.6,025.0,0000.0,0004.57,0002.82,0002.23
2024-05-13 04:30:00,SystemResetWarning,0827.1,5.00,000.00,024.9,024.0,000.0,033.3,026.6,024.9,0000.0,0004.77,0002.82,0002.23
2024-05-13 04:31:00,SystemResetWarning,0827.1,5.00,000.00,024.9,024.1,000.0,033.3,026.7,024.9,0000.0,0004.67,0002.79,0002.23
2024-05-13 04:32:00,SystemResetWarning,0827.1,5.01,000.00,025.0,024.2,000.0,033.3,026.7,024.8,0000.0,0004.58,0002.76,0002.22
2024-05-13 04:33:00,SystemResetWarning,0827.1,5.01,000.00,025.0,024.3,000.0,033.3,026.8,024.9,0000.0,0004.64,0002.79,0002.22
2024-05-13 04:34:00,SystemResetWarning,0827.1,5.00,000.00,025.1,024.4,000.0,033.3,026.8,024.6,0000.0,0004.59,0002.78,0002.22
2024-05-13 04:35:00,SystemResetWarning,0827.1,5.00,000.00,025.1,024.5,000.0,033.3,026.9,024.6,0000.0,0004.63,0002.81,0002.24
2024-05-13 04:36:00,SystemResetWarning,0827.1,5.00,000.00,025.1,024.6,000.0,033.3,026.9,024.7,0000.0,0004.81,0002.84,0002.25
2024-05-13 04:37:00,SystemResetWarning,0827.1,5.00,000.00,025.2,024.6,000.0,033.3,026.9,024.6,0000.0,0004.86,0002.86,0002.25
2024-05-13 04:38:00,SystemResetWarning,0827.1,5.00,000.00,025.2,024.7,000.0,033.3,027.0,024.7,0000.0,0004.81,0002.90,0002.25
2024-05-13 04:39:00,SystemResetWarning,0827.1,5.00,000.00,025.2,024.7,000.0,033.3,027.0,024.5,0000.0,0004.70,0002.87,0002.26
2024-05-13 04:40:00,SystemResetWarning,0827.0,5.00,000.00,025.3,024.7,000.0,033.4,027.1,024.5,0000.0,0004.44,0002.83,0002.26
2024-05-13 04:41:00,SystemResetWarning,0827.0,5.00,000.00,025.3,024.8,000.0,033.4,027.1,024.2,0000.0,0004.17,0002.83,0002.28
2024-05-13 04:42:00,SystemResetWarning,0827.1,5.00,000.00,025.3,024.8,000.0,033.4,027.1,024.1,0000.0,0004.22,0002.85,0002.29
2024-05-13 04:43:00,SystemResetWarning,0827.0,5.00,000.00,025.4,024.8,000.0,033.4,027.1,024.0,0000.0,0004.29,0002.87,0002.30
2024-05-13 04:44:00,SystemResetWarning,0827.1,5.01,000.00,025.4,024.9,000.0,033.5,027.2,023.7,0000.0,0004.37,0002.86,0002.29
2024-05-13 04:45:00,SystemResetWarning,0827.1,5.01,000.00,025.4,024.9,000.0,033.5,027.2,023.7,0000.0,0004.48,0002.90,0002.29
2024-05-13 04:46:00,SystemResetWarning,0827.1,5.00,000.00,025.4,024.9,000.0,033.5,027.2,023.8,0000.0,0004.50,0002.91,0002.29
2024-05-13 04:47:00,SystemResetWarning,0827.0,5.00,000.00,025.5,025.0,000.0,033.5,027.2,023.7,0000.0,0004.46,0002.88,0002.28
2024-05-13 04:48:00,SystemResetWarning,0827.0,5.00,000.00,025.5,025.0,000.0,033.5,027.3,023.6,0000.0,0004.51,0002.89,0002.26
2024-05-13 04:49:00,SystemResetWarning,0827.0,4.99,000.00,025.5,025.0,000.0,033.6,027.3,023.4,0000.0,0004.99,0002.86,0002.25
2024-05-13 04:50:00,SystemResetWarning,0827.0,5.00,000.00,025.5,025.0,000.0,033.6,027.3,023.4,0000.0,0005.26,0002.85,0002.24
2024-05-13 04:51:00,SystemResetWarning,0827.0,5.00,000.00,025.5,025.0,000.0,033.6,027.3,023.3,0000.0,0006.84,0002.87,0002.22
2024-05-13 04:52:00,SystemResetWarning,0827.1,5.01,000.00,025.6,025.1,000.0,033.7,027.4,023.1,0000.0,0006.82,0002.87,0002.21
2024-05-13 04:53:00,SystemResetWarning,0827.1,5.01,000.00,025.6,025.1,000.0,033.7,027.4,023.1,0000.0,0006.90,0002.92,0002.22
2024-05-13 04:54:00,SystemResetWarning,0827.1,5.00,000.00,025.6,025.1,000.0,033.7,027.4,023.1,0000.0,0007.23,0002.94,0002.22
2024-05-13 04:55:00,SystemResetWarning,0827.1,4.99,000.00,025.6,025.1,000.0,033.7,027.4,023.0,0000.0,0007.75,0002.93,0002.22
2024-05-13 04:56:00,SystemResetWarning,0827.1,4.99,000.00,025.6,025.1,000.0,033.7,027.4,023.1,0000.0,0007.64,0002.85,0002.21
2024-05-13 04:57:00,SystemResetWarning,0827.1,4.99,000.00,025.7,025.1,000.0,033.8,027.4,023.1,0000.0,0007.57,0002.81,0002.20
2024-05-13 04:58:00,SystemResetWarning,0827.1,4.99,000.00,025.7,025.1,000.0,033.8,027.4,023.1,0000.0,0007.53,0002.82,0002.20
2024-05-13 04:59:00,SystemResetWarning,0827.0,5.00,000.00,025.7,025.2,000.0,033.8,027.5,022.8,0000.0,0007.48,0002.79,0002.20
